{"data":{"norad_id":63120,"intl_designator":"2025-039S","name":"STARLINK-32942","alt_names":[],"object_type":"PAYLOAD","status":"ACTIVE","operator":null,"country":"US","launch_date":"2025-02-27","launch_site_code":"AFETR","launch_vehicle":null,"mission":null,"orbit_class":"UNKNOWN","rcs_meters":null,"size_class":null,"mass_kg":null,"dimensions":null,"purposes":["comms"],"wikipedia_slug":null,"has_3d_model":false,"image_url":null,"decayed_at":null,"tle_current":{"epoch":"2026-09-21T13:27:46.785024Z","epoch_age_seconds":70641,"freshness":"FRESH","line1":"1 63120U 25039S   26264.56095816  .00008302  00000+0  31080-3 0  9998","line2":"2 63120  43.0054 346.5239 0001633 257.8429 102.2240 15.27589415 88028","mean_motion":15.27589415,"eccentricity":0.0001633,"inclination_deg":43.0054,"raan_deg":346.5239,"arg_perigee_deg":257.8429,"mean_anomaly_deg":102.224,"bstar":0.0003108,"rev_number":8802,"period_min":94.266167718896,"perigee_km":481.90047720165,"apogee_km":484.14133137319,"semimajor_km":6861.1579042874,"source":"CELESTRAK","updated_at":"2026-09-22T09:00:49.765691Z"}}}